Radiation Dose at Monitoring Post of Fukushima Daini Nuclear Power Station
Date,Time,MP-1(microSv/h),MP-2(microSv/h),MP-3(microSv/h),MP-4(microSv/h),MP-5(microSv/h),MP-6(microSv/h),MP-7(microSv/h),Wind Direction,Wind Velocity(m/s),Rain
2015/03/01,00:00,0.545,0.330,0.556,0.511,0.549,0.255,0.227,southwest,0.8,No
2015/03/01,00:10,0.545,0.329,0.558,0.511,0.550,0.255,0.229,south,0.9,No
2015/03/01,00:20,0.545,0.334,0.560,0.509,0.548,0.255,0.228,south,1.1,No
2015/03/01,00:30,0.544,0.331,0.559,0.510,0.551,0.256,0.229,south,1.4,No
2015/03/01,00:40,0.544,0.330,0.558,0.511,0.552,0.256,0.227,south,1.4,No
2015/03/01,00:50,0.543,0.329,0.557,0.511,0.550,0.257,0.227,south,1.7,No
2015/03/01,01:00,0.545,0.331,0.560,0.511,0.550,0.254,0.226,south-southeast,1.8,No
2015/03/01,01:10,0.543,0.330,0.560,0.509,0.552,0.255,0.227,south-southeast,2.1,No
2015/03/01,01:20,0.545,0.331,0.556,0.512,0.553,0.255,0.228,south-southeast,1.6,No
2015/03/01,01:30,0.545,0.330,0.557,0.510,0.549,0.254,0.228,south,2.4,No
2015/03/01,01:40,0.542,0.331,0.559,0.509,0.552,0.255,0.227,south,2.9,No
2015/03/01,01:50,0.543,0.330,0.558,0.508,0.550,0.255,0.227,south,2.8,No
2015/03/01,02:00,0.547,0.330,0.555,0.511,0.552,0.256,0.227,south,2.5,No
2015/03/01,02:10,0.544,0.331,0.558,0.510,0.549,0.256,0.228,south,3.1,No
2015/03/01,02:20,0.543,0.332,0.559,0.510,0.554,0.255,0.228,south-southwest,2.8,No
2015/03/01,02:30,0.544,0.331,0.558,0.510,0.550,0.255,0.227,south,2.2,No
2015/03/01,02:40,0.546,0.331,0.557,0.510,0.550,0.255,0.229,south,2.1,No
2015/03/01,02:50,0.544,0.330,0.558,0.510,0.551,0.256,0.227,south,3.0,No
2015/03/01,03:00,0.546,0.331,0.559,0.510,0.554,0.254,0.228,south-southwest,3.7,No
2015/03/01,03:10,0.545,0.331,0.557,0.510,0.550,0.254,0.228,south,4.5,No
2015/03/01,03:20,0.544,0.329,0.558,0.511,0.551,0.256,0.227,south,4.9,No
2015/03/01,03:30,0.542,0.329,0.559,0.509,0.551,0.255,0.229,south,5.5,No
2015/03/01,03:40,0.544,0.331,0.558,0.511,0.551,0.256,0.228,south,4.9,No
2015/03/01,03:50,0.547,0.331,0.559,0.512,0.549,0.255,0.227,south,4.8,No
2015/03/01,04:00,0.544,0.330,0.556,0.512,0.552,0.256,0.228,south,4.7,No
2015/03/01,04:10,0.543,0.329,0.560,0.510,0.552,0.256,0.228,south,4.5,No
2015/03/01,04:20,0.546,0.331,0.559,0.512,0.550,0.255,0.227,south,4.0,No
2015/03/01,04:30,0.544,0.331,0.558,0.513,0.549,0.255,0.227,south,3.8,No
2015/03/01,04:40,0.542,0.330,0.558,0.510,0.551,0.255,0.228,south,4.7,No
2015/03/01,04:50,0.544,0.331,0.559,0.509,0.552,0.254,0.227,south,5.3,No
2015/03/01,05:00,0.544,0.329,0.557,0.512,0.550,0.255,0.228,south,4.9,No
2015/03/01,05:10,0.544,0.331,0.558,0.511,0.549,0.256,0.228,south,4.8,No
2015/03/01,05:20,0.545,0.331,0.558,0.510,0.551,0.257,0.227,south,5.2,No
2015/03/01,05:30,0.545,0.332,0.558,0.508,0.551,0.256,0.227,south,5.4,No
2015/03/01,05:40,0.545,0.332,0.558,0.512,0.550,0.255,0.227,south,6.1,No
2015/03/01,05:50,0.544,0.332,0.559,0.511,0.552,0.255,0.228,south,6.6,No
2015/03/01,06:00,0.544,0.330,0.559,0.509,0.551,0.255,0.226,south,5.3,No
2015/03/01,06:10,0.542,0.330,0.557,0.512,0.550,0.255,0.227,south,6.2,No
2015/03/01,06:20,0.545,0.330,0.556,0.511,0.550,0.255,0.227,south,7.5,No
2015/03/01,06:30,0.547,0.330,0.560,0.510,0.552,0.255,0.227,south,6.8,No
2015/03/01,06:40,0.545,0.330,0.557,0.510,0.550,0.254,0.228,south,7.0,No
2015/03/01,06:50,0.543,0.332,0.556,0.511,0.551,0.254,0.227,south-southwest,7.0,No
2015/03/01,07:00,0.545,0.330,0.558,0.512,0.551,0.256,0.227,south-southwest,7.3,Yes
2015/03/01,07:10,0.546,0.331,0.561,0.511,0.555,0.257,0.228,south-southwest,7.2,Yes
2015/03/01,07:20,0.547,0.333,0.560,0.513,0.552,0.257,0.230,south,7.4,Yes
2015/03/01,07:30,0.548,0.334,0.559,0.515,0.553,0.258,0.231,south,7.1,Yes
2015/03/01,07:40,0.547,0.335,0.561,0.513,0.554,0.259,0.231,south-southwest,6.8,Yes
2015/03/01,07:50,0.545,0.333,0.561,0.514,0.553,0.258,0.231,south-southwest,7.0,Yes
2015/03/01,08:00,0.548,0.333,0.559,0.513,0.553,0.258,0.231,south-southwest,7.1,Yes
2015/03/01,08:10,0.549,0.333,0.558,0.512,0.551,0.257,0.230,south-southwest,7.0,Yes
2015/03/01,08:20,0.546,0.332,0.561,0.512,0.553,0.258,0.230,south-southwest,7.6,Yes
2015/03/01,08:30,0.544,0.333,0.557,0.510,0.549,0.258,0.229,south-southwest,7.0,Yes
2015/03/01,08:40,0.545,0.333,0.557,0.510,0.549,0.257,0.228,south-southwest,6.3,Yes
2015/03/01,08:50,0.546,0.331,0.560,0.512,0.550,0.256,0.229,south-southwest,5.3,Yes
2015/03/01,09:00,0.545,0.332,0.559,0.512,0.551,0.256,0.228,south,4.5,Yes
2015/03/01,09:10,0.544,0.332,0.556,0.511,0.549,0.257,0.228,south-southwest,5.0,No
2015/03/01,09:20,0.541,0.331,0.559,0.511,0.551,0.257,0.228,south-southwest,4.9,No
2015/03/01,09:30,0.543,0.330,0.559,0.510,0.551,0.256,0.229,south-southwest,4.6,No
2015/03/01,09:40,0.544,0.332,0.555,0.509,0.549,0.256,0.228,south-southwest,4.8,No
2015/03/01,09:50,0.542,0.330,0.557,0.510,0.552,0.255,0.227,south-southwest,4.9,No
2015/03/01,10:00,0.543,0.329,0.559,0.510,0.550,0.255,0.226,south-southwest,4.8,No
2015/03/01,10:10,0.544,0.332,0.556,0.508,0.549,0.254,0.224,south-southwest,4.6,No
2015/03/01,10:20,0.541,0.330,0.557,0.510,0.549,0.255,0.227,south-southwest,4.2,No
2015/03/01,10:30,0.544,0.329,0.557,0.510,0.548,0.255,0.226,south,3.7,No
2015/03/01,10:40,0.541,0.330,0.554,0.507,0.549,0.255,0.227,south,3.1,No
2015/03/01,10:50,0.541,0.331,0.558,0.509,0.551,0.255,0.227,south,3.8,Yes
2015/03/01,11:00,0.544,0.328,0.556,0.511,0.551,0.254,0.228,south-southwest,5.0,Yes
2015/03/01,11:10,0.541,0.331,0.554,0.510,0.548,0.255,0.226,south-southwest,3.2,No
2015/03/01,11:20,0.543,0.331,0.557,0.510,0.549,0.255,0.227,south,3.1,Yes
2015/03/01,11:30,0.542,0.330,0.556,0.510,0.549,0.256,0.225,south,4.5,Yes
2015/03/01,11:40,0.542,0.331,0.556,0.509,0.550,0.255,0.228,south,5.3,Yes
2015/03/01,11:50,0.545,0.329,0.558,0.511,0.550,0.255,0.226,south,5.1,Yes
2015/03/01,12:00,0.541,0.331,0.555,0.511,0.550,0.256,0.228,south,6.8,Yes
2015/03/01,12:10,0.544,0.332,0.557,0.511,0.551,0.256,0.227,south,6.5,Yes
2015/03/01,12:20,0.544,0.330,0.560,0.510,0.550,0.256,0.228,south,7.3,Yes
2015/03/01,12:30,0.543,0.332,0.557,0.511,0.550,0.257,0.229,south,6.1,Yes
2015/03/01,12:40,0.548,0.333,0.557,0.510,0.550,0.256,0.228,south,6.1,Yes
2015/03/01,12:50,0.546,0.332,0.559,0.511,0.551,0.257,0.228,south-southwest,6.2,Yes
2015/03/01,13:00,0.543,0.333,0.555,0.510,0.552,0.258,0.228,south,4.0,Yes
2015/03/01,13:10,0.546,0.333,0.556,0.511,0.551,0.256,0.229,south,4.4,Yes
2015/03/01,13:20,0.545,0.333,0.558,0.509,0.552,0.257,0.229,south,5.3,Yes
2015/03/01,13:30,0.542,0.333,0.557,0.509,0.550,0.256,0.227,south,5.1,Yes
2015/03/01,13:40,0.545,0.332,0.557,0.508,0.551,0.256,0.227,south,6.5,Yes
2015/03/01,13:50,0.542,0.331,0.557,0.508,0.550,0.255,0.229,south-southwest,5.8,Yes
2015/03/01,14:00,0.541,0.333,0.555,0.507,0.549,0.257,0.227,south,4.2,Yes
2015/03/01,14:10,0.541,0.332,0.552,0.508,0.549,0.258,0.228,south,5.1,Yes
2015/03/01,14:20,0.541,0.330,0.554,0.506,0.550,0.255,0.228,south,4.5,Yes
2015/03/01,14:30,0.543,0.332,0.553,0.508,0.549,0.256,0.228,south-southwest,5.5,Yes
2015/03/01,14:40,0.542,0.331,0.551,0.506,0.547,0.256,0.226,south,4.6,Yes
2015/03/01,14:50,0.539,0.330,0.553,0.505,0.548,0.255,0.227,south,5.3,Yes
2015/03/01,15:00,0.542,0.330,0.551,0.504,0.549,0.255,0.225,south,5.2,Yes
2015/03/01,15:10,0.538,0.331,0.550,0.505,0.544,0.255,0.226,south,5.1,Yes
2015/03/01,15:20,0.536,0.329,0.551,0.503,0.548,0.255,0.226,south,5.5,Yes
2015/03/01,15:30,0.539,0.330,0.552,0.503,0.547,0.255,0.227,south,5.5,Yes
2015/03/01,15:40,0.538,0.331,0.549,0.504,0.546,0.255,0.226,south,5.0,Yes
2015/03/01,15:50,0.538,0.330,0.551,0.503,0.548,0.255,0.228,south,4.8,Yes
2015/03/01,16:00,0.539,0.330,0.549,0.502,0.547,0.255,0.226,south,4.2,Yes
2015/03/01,16:10,0.537,0.330,0.547,0.503,0.546,0.256,0.227,south,5.0,Yes
2015/03/01,16:20,0.535,0.329,0.548,0.502,0.549,0.257,0.226,south,4.8,Yes
2015/03/01,16:30,0.538,0.330,0.546,0.500,0.547,0.257,0.227,south,6.5,Yes
2015/03/01,16:40,0.533,0.331,0.543,0.500,0.544,0.256,0.225,south-southeast,5.3,Yes
2015/03/01,16:50,0.538,0.330,0.545,0.498,0.546,0.256,0.227,south-southwest,1.1,Yes
2015/03/01,17:00,0.532,0.329,0.540,0.492,0.543,0.256,0.225,south,4.3,Yes
2015/03/01,17:10,0.529,0.330,0.538,0.492,0.541,0.256,0.227,south,7.8,Yes
2015/03/01,17:20,0.533,0.329,0.541,0.495,0.543,0.256,0.226,south,7.7,Yes
2015/03/01,17:30,0.530,0.329,0.539,0.492,0.544,0.255,0.225,south,6.2,Yes
2015/03/01,17:40,0.526,0.330,0.536,0.489,0.541,0.254,0.225,south-southeast,4.4,Yes
2015/03/01,17:50,0.528,0.326,0.532,0.487,0.541,0.254,0.224,northeast,2.8,Yes
2015/03/01,18:00,0.527,0.327,0.532,0.485,0.543,0.254,0.224,south,7.6,Yes
2015/03/01,18:10,0.527,0.328,0.532,0.487,0.541,0.255,0.225,south,5.4,Yes
2015/03/01,18:20,0.528,0.327,0.534,0.488,0.543,0.255,0.225,south,3.3,Yes
2015/03/01,18:30,0.525,0.329,0.536,0.485,0.543,0.254,0.227,south-southwest,0.8,Yes
2015/03/01,18:40,0.524,0.330,0.532,0.488,0.543,0.256,0.227,southwest,2.6,Yes
2015/03/01,18:50,0.528,0.329,0.536,0.489,0.545,0.255,0.229,south-southwest,2.8,Yes
2015/03/01,19:00,0.526,0.330,0.535,0.487,0.545,0.256,0.229,-,CALM,Yes
2015/03/01,19:10,0.527,0.331,0.534,0.488,0.545,0.256,0.228,south,1.3,Yes
2015/03/01,19:20,0.527,0.328,0.531,0.489,0.543,0.257,0.226,north,6.0,Yes
2015/03/01,19:30,0.526,0.330,0.534,0.489,0.546,0.257,0.228,north,3.6,Yes
2015/03/01,19:40,0.527,0.330,0.532,0.491,0.544,0.257,0.229,west-northwest,6.3,Yes
2015/03/01,19:50,0.524,0.329,0.531,0.490,0.544,0.256,0.227,northwest,6.2,Yes
2015/03/01,20:00,0.524,0.330,0.533,0.488,0.544,0.257,0.228,north-northwest,5.4,Yes
2015/03/01,20:10,0.525,0.331,0.529,0.487,0.543,0.256,0.227,west-northwest,6.3,Yes
2015/03/01,20:20,0.523,0.328,0.528,0.486,0.542,0.254,0.225,northwest,6.1,Yes
2015/03/01,20:30,0.521,0.328,0.531,0.484,0.543,0.254,0.226,west-northwest,7.3,Yes
2015/03/01,20:40,0.522,0.328,0.528,0.485,0.539,0.252,0.225,northwest,5.2,Yes
2015/03/01,20:50,0.523,0.326,0.527,0.486,0.541,0.253,0.226,west-northwest,6.1,Yes
2015/03/01,21:00,0.520,0.328,0.528,0.488,0.543,0.253,0.224,north-northwest,7.9,Yes
2015/03/01,21:10,0.519,0.328,0.529,0.484,0.541,0.253,0.224,north-northwest,7.0,Yes
2015/03/01,21:20,0.520,0.327,0.527,0.483,0.540,0.253,0.223,north-northwest,8.3,Yes
2015/03/01,21:30,0.518,0.327,0.526,0.485,0.541,0.252,0.223,north-northwest,8.1,Yes
2015/03/01,21:40,0.515,0.325,0.526,0.483,0.540,0.250,0.223,north-northwest,8.8,Yes
2015/03/01,21:50,0.517,0.326,0.526,0.483,0.537,0.251,0.223,north-northwest,11.7,Yes
2015/03/01,22:00,0.514,0.326,0.523,0.480,0.539,0.250,0.223,north-northwest,10.7,Yes
2015/03/01,22:10,0.514,0.323,0.523,0.480,0.539,0.250,0.221,north-northwest,11.9,Yes
2015/03/01,22:20,0.513,0.325,0.524,0.479,0.538,0.249,0.221,north-northwest,11.4,Yes
2015/03/01,22:30,0.516,0.325,0.523,0.480,0.536,0.249,0.221,north-northwest,11.4,Yes
2015/03/01,22:40,0.514,0.324,0.523,0.485,0.540,0.249,0.221,north-northwest,12.0,Yes
2015/03/01,22:50,0.515,0.325,0.527,0.483,0.539,0.249,0.222,north-northwest,11.2,Yes
2015/03/01,23:00,0.517,0.325,0.530,0.483,0.541,0.248,0.222,north-northwest,10.6,Yes
2015/03/01,23:10,0.518,0.326,0.529,0.487,0.540,0.248,0.222,northwest,11.6,Yes
2015/03/01,23:20,0.519,0.325,0.529,0.488,0.543,0.248,0.222,north-northwest,11.8,Yes
2015/03/01,23:30,0.520,0.325,0.534,0.487,0.542,0.248,0.220,northwest,11.4,Yes
2015/03/01,23:40,0.520,0.325,0.531,0.487,0.540,0.247,0.221,northwest,12.3,Yes
2015/03/01,23:50,0.518,0.325,0.531,0.488,0.541,0.248,0.220,northwest,13.1,Yes
